Tracking 18945 objects as of 19-Jan-2018
HD Live streaming from Space Station
objects crossing your sky now

FENGYUN 1C DEB

Track FENGYUN 1C DEB now!
10-day predictions


NORAD ID: 31382
Int'l Code: 1999-025BSN
Perigee: 646.3 km
Apogee: 712.1 km
Inclination: 96.9 °
Period: 98.2 minutes
Semi major axis: 7050 km
RCS: 0.0132 m2 (small)
Launch date: May 10, 1999
Source: People's Republic of China (PRC)
Launch site: Taiyaun Space Center, China (TSC)

Note: This is SATELLITE DEBRIS
aabbcc
Your satellite tracking list
Your tracking list is empty




NASA's NSSDC Master Catalog

Two Line Element Set (TLE):
1 31382U 99025BSN 18018.75422719 +.00003337 +00000-0 +59858-3 0  9991
2 31382 096.9166 018.1611 0046664 000.3228 359.8001 14.66559863228321
Source of the keplerian elements: AFSPC